Hourly Data Report for October 19, 2016

All times are specified in Local Standard Time (LST). Add 1 hour to adjust for Daylight Saving Time where and when it is observed.

WINNIPEG A CS
MANITOBA

49°55'00.000" N
97°14'58.000" W
238.70 m
502S001
71849
XWG

Download Data

Hourly Data (October 2016)
Hourly Data Report for October 19, 2016
Temp Definition
°C
Dew Point Temp Definition
°C
Rel Hum Definition
%
Wind Dir Definition
10's deg

Wind Spd Definition
km/h
Visibility Definition
km
Stn Press Definition
kPa
Hmdx Definition


Wind Chill Definition


Weather Definition


TIME
00:00 3.7 0.5 80 28 16   98.43     LegendNANA
01:00 3.3 0.0 79 28 15   98.49     LegendNANA
02:00 2.8 0.4 84 30 14   98.57     LegendNANA
03:00 2.8 0.3 84 28 14   98.59     LegendNANA
04:00 1.0 -1.1 86 28 12   98.68     LegendNANA
05:00 0.1 -1.4 90 25 12   98.77     LegendNANA
06:00 -0.8 -2.7 87 27 15   98.84   -5 LegendNANA
07:00 -0.6 -2.5 87 27 18   98.90   -6 LegendNANA
08:00 0.6 -1.5 86 28 19   98.98     LegendNANA
09:00 1.8 -0.9 82 27 19   99.05     LegendNANA
10:00 3.4 -0.6 75 28 22   99.12     LegendNANA
11:00 4.4 -0.3 71 29 23   99.17     LegendNANA
12:00 4.4 -0.1 72 29 28   99.24     LegendNANA
13:00 4.7 -0.4 69 31 28   99.27     LegendNANA
14:00 5.0 -0.3 68 31 28   99.29     LegendNANA
15:00 5.3 -0.3 67 31 27   99.34     LegendNANA
16:00 5.1 -1.0 65 30 24   99.40     LegendNANA
17:00 4.6 -1.2 66 31 25   99.46     LegendNANA
18:00 3.9 -0.6 73 30 20   99.51     LegendNANA
19:00 3.3 -0.3 77 31 17   99.58     LegendNANA
20:00 3.1 0.1 81 31 12   99.60     LegendNANA
21:00 2.1 0.0 86 28 10   99.64     LegendNANA
22:00 1.2 -0.2 90 28 9   99.66     LegendNANA
23:00 1.3 -0.1 91 29 10   99.67     LegendNANA

Notes on Data Quality.

Legend

  • E = Estimated
  • M = Missing
  • NA = Not Available
  • ‡ = Partner data that is not subject to review by the National Climate Archives
Date modified: